Glen Elder Reservoir Weather Center

Moon Phase Calendar



Glen Elder Reservoir Water Level
Online Cameras

 


      

Current Conditions in Downs
12/4/2021 2:27:56 PM

50°F
Feels Like 47
Clear
Humidity
36%
Pressure
30.18"
Wind
8.2 mph (ESE)
Dew Point
25°F
UV Index
2/10 (Low)
Visibility
6 mi

Hourly Forecast

Date & Time Sat, Dec 4
2:00 PM
Sat, Dec 4
3:00 PM
Sat, Dec 4
4:00 PM
Sat, Dec 4
5:00 PM
Sat, Dec 4
6:00 PM
Sat, Dec 4
7:00 PM
Sat, Dec 4
8:00 PM
Sat, Dec 4
9:00 PM
Sat, Dec 4
10:00 PM
Sat, Dec 4
11:00 PM
Sun, Dec 5
12:00 AM
Sun, Dec 5
1:00 AM
Sun, Dec 5
2:00 AM
Sun, Dec 5
3:00 AM
Sun, Dec 5
4:00 AM
Sun, Dec 5
5:00 AM
Sun, Dec 5
6:00 AM
Sun, Dec 5
7:00 AM
Sun, Dec 5
8:00 AM
Sun, Dec 5
9:00 AM
Sun, Dec 5
10:00 AM
Sun, Dec 5
11:00 AM
Sun, Dec 5
12:00 PM
Sun, Dec 5
1:00 PM
Sun, Dec 5
2:00 PM
Sun, Dec 5
3:00 PM
Sun, Dec 5
4:00 PM
Sun, Dec 5
5:00 PM
Sun, Dec 5
6:00 PM
Sun, Dec 5
7:00 PM
Sun, Dec 5
8:00 PM
Sun, Dec 5
9:00 PM
Sun, Dec 5
10:00 PM
Sun, Dec 5
11:00 PM
Mon, Dec 6
12:00 AM
Mon, Dec 6
1:00 AM
Mon, Dec 6
2:00 AM
Mon, Dec 6
3:00 AM
Mon, Dec 6
4:00 AM
Mon, Dec 6
5:00 AM
Mon, Dec 6
6:00 AM
Mon, Dec 6
7:00 AM
Mon, Dec 6
8:00 AM
Mon, Dec 6
9:00 AM
Mon, Dec 6
10:00 AM
Mon, Dec 6
11:00 AM
Mon, Dec 6
12:00 PM
Mon, Dec 6
1:00 PM
Condition
Clear

Clear

Clear

Clear

Clear

Clear

Clear

Clear

Clear

Clear

Clouds

Clouds

Clouds

Clouds

Clouds

Clouds

Clouds

Clouds

Clouds

Clouds

Clouds

Clouds

Clouds

Clear

Clouds

Clouds

Clouds

Clouds

Clouds

Clear

Clouds

Clouds

Clouds

Clouds

Clouds

Clouds

Clouds

Clouds

Clouds

Clouds

Clouds

Clear

Clear

Clear

Clouds

Clouds

Clouds

Clouds
Temperature 50°F51°F51°F49°F45°F42°F41°F40°F39°F39°F40°F39°F39°F40°F39°F40°F41°F41°F41°F46°F51°F59°F64°F68°F67°F60°F57°F53°F50°F46°F42°F39°F37°F36°F35°F34°F32°F31°F29°F28°F26°F25°F24°F28°F32°F35°F36°F37°F
Feels Like 47°F47°F47°F44°F41°F37°F36°F34°F33°F32°F34°F34°F34°F34°F33°F33°F35°F35°F34°F41°F49°F56°F62°F65°F64°F58°F54°F49°F43°F38°F33°F30°F27°F25°F25°F24°F21°F18°F17°F16°F16°F16°F16°F20°F25°F29°F32°F37°F
Cloudiness 10%9%8%6%4%0%0%0%1%1%12%100%100%100%84%84%87%100%58%71%78%64%55%4%15%43%57%66%71%8%14%41%56%64%70%100%91%61%47%37%32%6%6%9%27%42%52%100%
Visibility 6 mi6 mi6 mi6 mi6 mi6 mi6 mi6 mi6 mi6 mi6 mi6 mi6 mi6 mi6 mi6 mi6 mi6 mi6 mi6 mi6 mi6 mi6 mi6 mi6 mi6 mi6 mi6 mi6 mi6 mi6 mi6 mi6 mi6 mi6 mi6 mi6 mi6 mi6 mi6 mi6 mi6 mi6 mi6 mi6 mi6 mi6 mi6 mi
Precipitation 0%0%0%0%0%0%0%0%0%0%0%0%0%0%0%0%0%0%0%0%0%0%0%0%0%0%0%0%0%0%0%0%0%0%0%0%0%0%0%0%0%0%0%0%0%0%0%0%
Humidity 36%35%35%41%48%53%55%58%61%64%68%74%78%81%85%86%82%83%82%65%51%37%28%21%19%31%36%35%33%35%40%39%38%38%39%44%48%50%52%55%59%62%64%53%43%36%31%28%
Dew Point 25°F25°F25°F27°F27°F26°F26°F26°F27°F28°F30°F32°F33°F34°F35°F36°F36°F36°F35°F34°F34°F33°F30°F26°F24°F29°F30°F25°F21°F20°F19°F17°F14°F12°F13°F14°F14°F14°F14°F14°F14°F13°F13°F13°F12°F10°F8°F7°F
Pressure 30.18"30.18"30.15"30.12"30.12"30.12"30.12"30.09"30.06"30.03"30"29.94"29.91"29.88"29.85"29.8"29.8"29.8"29.74"29.74"29.71"29.68"29.65"29.62"29.62"29.68"29.77"29.85"29.94"30.03"30.09"30.18"30.21"30.24"30.27"30.3"30.33"30.36"30.36"30.39"30.42"30.45"30.45"30.45"30.45"30.42"30.39"30.33"
Wind Speed 8.2 mph9.2 mph9.6 mph9.8 mph7.3 mph7.7 mph7.8 mph7.8 mph8.4 mph10.6 mph8.6 mph7.6 mph7.6 mph8 mph8.8 mph9.9 mph8.8 mph8.5 mph10.5 mph10.9 mph11.4 mph10.4 mph9.3 mph10.7 mph18.7 mph17.5 mph17.7 mph19.7 mph20.4 mph20.3 mph20.2 mph20.2 mph19.1 mph18.4 mph16 mph14.7 mph18 mph19.5 mph17.1 mph14.2 mph10.7 mph8.8 mph7.2 mph7.6 mph7.7 mph6.7 mph5 mph1.8 mph
Wind
Direction
116°
ESE
125°
SE
123°
ESE
142°
SE
119°
ESE
118°
ESE
116°
ESE
131°
SE
149°
SSE
167°
SSE
174°
S
182°
S
187°
S
192°
SSW
195°
SSW
195°
SSW
216°
SW
217°
SW
213°
SSW
229°
SW
242°
WSW
261°
W
278°
W
304°
NW
350°
N
12°
NNE

N

N
356°
N
357°
N
356°
N
350°
N
353°
N
348°
NNW
342°
NNW
340°
NNW
343°
NNW
341°
NNW
339°
NNW
338°
NNW
340°
NNW
339°
NNW
336°
NNW
340°
NNW
342°
NNW
343°
NNW
342°
NNW
280°
W

Daily Forecast

Date High Low Precip. Humidity
Today
Dec 4

Clouds
51 °F
34 °F
0%
40%
Sunday
Dec 5

Clouds
68 °F
36 °F
0%
28%
Monday
Dec 6

Clouds
38 °F
26 °F
0%
31%
Tuesday
Dec 7

Snow
43 °F
32 °F
33%
33%
Wednesday
Dec 8

Snow
40 °F
29 °F
50%
43%
Thursday
Dec 9

Clouds
55 °F
30 °F
0%
54%
Friday
Dec 10

Clouds
44 °F
37 °F
21%
94%
Saturday
Dec 11

Clouds
35 °F
24 °F
0%
61%
Sunday
Dec 12

Clear
46 °F
22 °F
0%
42%
Monday
Dec 13

Clouds
54 °F
31 °F
0%
44%
Tuesday
Dec 14

Clouds
61 °F
39 °F
0%
26%
Wednesday
Dec 15

Clear
65 °F
38 °F
0%
44%
Thursday
Dec 16

Clouds
48 °F
34 °F
0%
30%
Friday
Dec 17

Clear
58 °F
32 °F
0%
17%
Saturday
Dec 18

Clouds
60 °F
41 °F
0%
20%
Sunday
Dec 19

Clouds
56 °F
40 °F
0%
33%

Temperature 8-14 Day Outlook



Precipitation 8-14 Day Outlook




Quick Links
Glen Elder Reservoir News
Glen Elder Reservoir Photos
Glen Elder Reservoir Videos




About Us
Contact Us
Site Map
Search Site
Advertise With Us
   
GlenElder.LakesOnline.com
THE GLEN ELDER RESERVOIR WEBSITE

Copyright 2021, Lakes Online
Privacy    |    Legal